sat.trackr.live / text

‹ back to catalog

STARLINK-36718

NORAD 67715 · 2026-025Y

PAYLOAD ACTIVE UNKNOWN

§ Identity

Operator
Country
US
Launch date
2026-02-07
Launch site
AFWTR
Launch vehicle
Mass (kg)
RCS (m²)

Purposes: comms

External: N2YO · Heavens-Above · Gunter

§ Orbital elements

Epoch: 2026-09-19T05:54:04.277376Z

Period
93.91 min
Inclination
97.2823°
Eccentricity
0.0001300
Mean motion
15.33454450 rev/d
Perigee alt
464.6 km
Apogee alt
466.4 km
Semi-major
6,843.7 km
B*
5.3959e-4
RAAN
12.1666°
Arg perigee
77.2337°
Mean anomaly
282.9051°
Rev number
3,567

§ Raw data

STARLINK-367181 67715U 26025Y   26262.24588284  .00017390  00000+0  53959-3 0  99932 67715  97.2823  12.1666 0001300  77.2337 282.9051 15.33454450 35676

JSON: /api/v1/satellites/67715 · /tle

For live sub-satellite position, see the globe view (requires WebGL).

§ Visibility from observer

Set your observer location to see the next 7 days of passes ≥ 10°. The values pass through the URL so the page stays shareable.

No JS? Fill the form by hand. The geolocation button needs JavaScript.